Willimantic, CT

10:57 PM EST on November 19, 2019 (GMT -0500)
Windham

Weather History for KIJD - October, 2019

Change the Weather History Date:

Tuesday, October 22, 2019

  Actual Average Record
Temperature  
Mean Temperature 50 °F -  
Max Temperature 57 °F 60 °F 81 °F (2017)
Min Temperature 43 °F 31 °F 19 °F (1959)
Degree Days  
Heating Degree Days 15    
Moisture  
Dew Point 50 °F    
Average Humidity 93    
Maximum Humidity 100    
Minimum Humidity 77    
Precipitation  
Precipitation 0.07 in - - ()
Sea Level Pressure  
Sea Level Pressure 30.04 in    
Wind  
Wind Speed 3 mph ()    
Max Wind Speed 10 mph    
Max Gust Speed -    
Visibility 7.0 miles    
Events Rain    
Averages and records for this station are not official NWS values.
T = Trace of Precipitation, MM = Missing Value Source: Averaged Metar Reports

Daily Weather History Graph

Daily Weather History Graph

Search for Another Location

Airport or City:

Astronomy

Oct. 22, 2019 Rise Set
Actual Time 7:08 AM EDT 5:57 PM EDT
Civil Twilight 6:40 AM EDT 6:25 PM EDT
Nautical Twilight 6:07 AM EDT 6:57 PM EDT
Astronomical Twilight 5:35 AM EDT 7:29 PM EDT
Moon 12:07 AM EDT (10/22) 3:10 PM EDT (10/22)
Length of Visible Light 11h 45m
Length of Day
10h 48m
Last Quarter, 37% of the Moon is Illuminated
Oct 22
Last Quarter
Oct 27
New
Nov 4
First Quarter
Nov 12
Full
Nov 19
Last Quarter

Hourly Weather History & Observations

Time (EDT) Temp. Windchill Dew Point Humidity Pressure Visibility Wind Dir Wind Speed Gust Speed Precip Events Conditions
12:52 AM 43.0 °F - 43.0 °F 100% 30.16 in 10.0 mi Calm Calm - N/A   Clear
1:52 AM 43.0 °F - 41.0 °F 93% 30.17 in 10.0 mi Calm Calm - N/A   Clear
2:52 AM 44.1 °F - 42.1 °F 93% 30.16 in 10.0 mi Calm Calm - N/A   Clear
3:52 AM 43.0 °F - 42.1 °F 97% 30.13 in 10.0 mi Calm Calm - N/A   Clear
4:52 AM 43.0 °F - 42.1 °F 97% 30.13 in 10.0 mi Calm Calm - N/A   Clear
5:52 AM 44.1 °F 41.5 °F 43.0 °F 96% 30.12 in 10.0 mi ENE 4.6 mph - N/A   Clear
6:52 AM 45.0 °F 43.5 °F 43.0 °F 93% 30.13 in 10.0 mi ENE 3.5 mph - N/A   Clear
7:19 AM 46.0 °F - 45.0 °F 96% 30.13 in 10.0 mi Calm Calm - N/A   Scattered Clouds
7:28 AM 46.0 °F - 45.0 °F 96% 30.12 in 10.0 mi North - - N/A   Mostly Cloudy
7:52 AM 48.0 °F - 46.0 °F 93% 30.12 in 10.0 mi Calm Calm - N/A   Overcast
8:52 AM 51.1 °F - 48.0 °F 89% 30.16 in 10.0 mi North 4.6 mph - N/A   Overcast
9:29 AM 52.0 °F - 48.9 °F 89% 30.14 in 10.0 mi East 8.1 mph - N/A   Overcast
9:52 AM 53.1 °F - 48.9 °F 86% 30.13 in 10.0 mi ENE 8.1 mph - N/A   Overcast
10:21 AM 55.0 °F - 48.9 °F 80% 30.11 in 10.0 mi NE 10.4 mph - N/A   Mostly Cloudy
10:52 AM 55.9 °F - 48.9 °F 77% 30.11 in 10.0 mi ENE 8.1 mph - N/A   Overcast
11:52 AM 55.9 °F - 50.0 °F 80% 30.11 in 10.0 mi East 3.5 mph - N/A   Overcast
12:22 PM 55.9 °F - 51.1 °F 84% 30.11 in 9.0 mi Variable 3.5 mph - N/A   Overcast
12:52 PM 55.9 °F - 52.0 °F 87% 30.09 in 5.0 mi Variable 4.6 mph - N/A   Overcast
1:13 PM 55.0 °F - 53.1 °F 93% 30.09 in 3.0 mi NNE 3.5 mph - N/A   Overcast
1:52 PM 55.0 °F - 53.1 °F 93% 30.06 in 9.0 mi ENE 6.9 mph - N/A   Overcast
2:52 PM 57.0 °F - 53.1 °F 87% 30.03 in 10.0 mi ENE 6.9 mph - N/A   Overcast
3:00 PM 57.0 °F - 53.1 °F 87% 30.03 in 10.0 mi East 4.6 mph - N/A   Overcast
3:52 PM 57.0 °F - 53.1 °F 87% 30.00 in 10.0 mi East 9.2 mph - N/A   Overcast
4:14 PM 55.9 °F - 54.0 °F 93% 29.99 in 7.0 mi East 3.5 mph - N/A   Overcast
4:45 PM 55.9 °F - 54.0 °F 93% 29.99 in 7.0 mi Calm Calm - N/A   Overcast
4:52 PM 55.9 °F - 54.0 °F 93% 29.99 in 9.0 mi East 5.8 mph - N/A   Overcast
5:52 PM 55.9 °F - 54.0 °F 93% 30.00 in 3.0 mi ENE 3.5 mph - 0.00 in Rain Light Rain
6:02 PM 55.0 °F - 54.0 °F 96% 30.00 in 2.0 mi ENE 4.6 mph - 0.00 in Rain Light Rain
6:35 PM 55.0 °F - 54.0 °F 96% 29.98 in 2.5 mi ENE 6.9 mph - 0.02 in Rain Light Rain
6:47 PM 55.4 °F - 53.6 °F 94% 29.96 in 4.0 mi ENE 8.1 mph - 0.02 in Rain Light Rain
6:52 PM 54.0 °F - 53.1 °F 97% 29.97 in 3.0 mi East 6.9 mph - 0.02 in   Overcast
7:00 PM 54.0 °F - 53.1 °F 97% 29.97 in 3.0 mi ENE 6.9 mph - 0.00 in Rain Light Rain
7:52 PM 54.0 °F - 53.1 °F 97% 29.97 in 5.0 mi ENE 3.5 mph - 0.00 in Rain Light Rain
8:28 PM 54.0 °F - 53.1 °F 97% 29.95 in 2.5 mi ENE 4.6 mph - 0.01 in Rain Light Rain
8:52 PM 54.0 °F - 53.1 °F 97% 29.95 in 2.5 mi NE 3.5 mph - 0.02 in Rain Light Rain
9:00 PM 54.0 °F - 53.1 °F 97% 29.94 in 3.0 mi NE 3.5 mph - 0.00 in   Overcast
9:52 PM 54.0 °F - 54.0 °F 100% 29.94 in 3.0 mi Calm Calm - 0.00 in   Overcast
10:38 PM 54.0 °F - 54.0 °F 100% 29.93 in 2.0 mi Calm Calm - 0.01 in Rain Light Rain
10:52 PM 54.0 °F - 54.0 °F 100% 29.91 in 2.5 mi NE 4.6 mph - 0.01 in Rain Light Rain
11:00 PM 54.0 °F - 54.0 °F 100% 29.90 in 3.0 mi NNE 4.6 mph - 0.00 in Rain Light Rain
11:52 PM 55.0 °F - 55.0 °F 100% 29.87 in 7.0 mi Variable 3.5 mph - 0.02 in Rain Light Rain